OIIK  Qazvin Airport

Add Bookmark

Qazvin, Iran

Status
Operational
Latitude Longitude
36° 14' 24" N 50° 2' 49" E
36.240101 50.047100
Local (DST + 5) UTC (GMT + 4)
Sep 16, 2014 09:56 Sep 16, 2014 17:26
Sunrise-Sunset Local UTC
Begin Civil Twilight 06:26 01:56
Sunrise 06:51 02:21
Sunset 07:17 14:47
End Civil Twilight 07:43 15:13

Current Weather

METAR Observed VFR
OIIK 161700Z 00000KT CAVOK 22/01 Q1011 Tue, Sep 16, 2014 @ 17:00 UTC
(26 Minutes ago)
Visual Flight Rules
Wind Visibility Clouds Conditions
Calm 10 km or more
  • Clear skies
  • No significant weather
Temperatures Readings Precipitation
Current Temp 22°C (72°F)
Dewpoint 1°C (34°F)
Humidity 25%
Altimeter 29.85"Hg
Sea Level Pressure 1011mb
Field Elevation 4192.91'
None Recorded

Additional weather within a 92.6km radius of OIIK

Map ICAO Location
OIIP 87km S (126°)

24 Hour Weather History

Loading
-

24 Hour Weather Graphs

Loading
-

CheckWX.com is intended as a tool to help pilots better visualize weather data. It is not intended as a substitute for an official weather briefing obtained from a Flight Service Station. CheckWX.com does not meet the FAA requirements for an official pre-flight weather briefing. Therefore, it's important that pilots still call and obtain an official FSS pre-flight weather briefing.